Regional Weather Roundup
Issued by NWS

Home | Current Version | Previous Version | Graphics & Text | Print | Product List | Glossary On
Versions: 1 2 3 4 5 6 7 8 9 10 11 12 13 14 15 16 17 18 19 20 21 22 23 24 25 26 27 28 29 30 31 32 33 34 35 36 37 38 39 40 41 42 43 44 45 46 47 48 49 50
000
ASUS43 KMKX 062100
RWRWI

WISCONSIN REGIONAL WEATHER ROUNDUP
NATIONAL WEATHER SERVICE MILWAUKEE/SULLIVAN WI
400 PM CDT WED MAY 06 2015

NOTE: "FAIR" INDICATES FEW OR NO CLOUDS BELOW 12,000 FEET WITH NO
SIGNIFICANT WEATHER AND/OR OBSTRUCTIONS TO VISIBILITY.

WIZ001-002-006>008-014>016-023>028-062200-
NORTHWEST WISCONSIN

CITY           SKY/WX    TMP DP  RH WIND       PRES   REMARKS
SUPERIOR ARPT  CLOUDY    49  38  65 E8        30.04F
ASHLAND        CLOUDY    57  50  77 N10       30.04F
HAYWARD        PTSUNNY   73  55  53 SE12      30.01F
SIREN          PTSUNNY   74  55  51 SE9G18    29.97F
CUMBERLAND     PTSUNNY   70  55  60 SE12      30.00F
RICE LAKE      PTSUNNY   71  56  59 SE9       30.02F
CHETEK         PTSUNNY   72  59  64 E12G20    30.01F
LADYSMITH      PTSUNNY   70  58  65 E9        30.06F
EAU CLAIRE     NOT AVBL
MENOMONIE      PTSUNNY   75  60  60 E13G18    29.99F
NEW RICHMOND   CLOUDY    73  57  57 E13G20    29.96F
OSCEOLA        CLOUDY    73  59  62 E15       29.97F
$$

WIZ003>005-009-010-017-018-062200-
NORTH CENTRAL WISCONSIN

CITY           SKY/WX    TMP DP  RH WIND       PRES   REMARKS
MANITOWISH WTR CLOUDY    67  58  75 SE10      30.09F
ARBOR VITAE    CLOUDY    67  57  71 SE12      30.10F
WOODRUFF       CLOUDY    67  57  71 SE12      30.10F
RHINELANDER    CLOUDY    66  56  70 SE9       30.11F
EAGLE RIVER    CLOUDY    69  53  57 SE7       30.11F
LAND O LAKES   CLOUDY    71  53  53 S9        30.11F
PHILLIPS       CLOUDY    63  57  80 SE9       30.08F
TOMAHAWK       CLOUDY    63  57  81 E6        30.11F
MEDFORD        PTSUNNY   70  57  63 SE14      30.07F
MERRILL        CLOUDY   N/A N/A N/A SE13      30.10F
$$

WIZ029-030-035-036-043>047-062200-
CENTRAL WISCONSIN

CITY           SKY/WX    TMP DP  RH WIND       PRES   REMARKS
WAUSAU         PTSUNNY   70  57  63 E12       30.07F
MOSINEE        SUNNY     72  59  64 SE10      30.09F
MARSHFIELD     PTSUNNY   75  58  55 SE14      30.06F
STEVENS POINT  MOSUNNY   70  56  63 SE10      30.10S
WAUPACA        PTSUNNY   71  58  62 E10       30.11F
WAUTOMA        NOT AVBL
WISC RAPIDS    MOSUNNY   75  55  49 SE9       30.07F
CAMP DOUGLAS   NOT AVBL
$$

WIZ011>013-019>022-031-037>040-048>050-062200-
NORTHEAST WISCONSIN

CITY           SKY/WX    TMP DP  RH WIND       PRES   REMARKS
ANTIGO         CLOUDY    65  58  76 SE12      30.12F
SHAWANO        PTSUNNY   67  57  69 NE9       30.12F
OCONTO         MOSUNNY   63  53  68 NE7       30.14F
STURGEON BAY   SUNNY     59  48  67 SE6       30.18F
GREEN BAY      CLOUDY    70  58  65 E9        30.12F
MANITOWOC      NOT AVBL
APPLETON       NOT AVBL
CLINTONVILLE   PTSUNNY   70  55  60 E10       30.10F
OSHKOSH        PTSUNNY   64  57  78 SE9       30.11F
$$

WIZ032>034-041-042-053>061-062200-
SOUTHWEST WISCONSIN

CITY           SKY/WX    TMP DP  RH WIND       PRES   REMARKS
LA CROSSE      PTSUNNY   79  57  46 SE14G22   29.97F HX  80
SPARTA         MOSUNNY   79  56  46 SE9G16    30.03F
VIROQUA        PTSUNNY   76  58  53 SE14G21   30.03F
BOSCOBEL       MOSUNNY   80  58  46 S9G22     30.01F HX  80
PRAIRIE DU CHI MOSUNNY   79  55  44 SE9G20    29.99F
PLATTEVILLE    PTSUNNY   78  60  53 SE15G21   30.03F
$$

WIZ056-057-062-063-064-067-068-062200-
SOUTH CENTRAL WISCONSIN

CITY           SKY/WX    TMP DP  RH WIND       PRES   REMARKS
REEDSBURG      MOSUNNY   74  62  64 E10       30.05F
BARABOO/DELLS  NOT AVBL
LONE ROCK      NOT AVBL
MINERAL POINT  SUNNY     77  61  57 SE13G20   30.05F
MADISON        PTSUNNY   75  63  66 E13       30.07F
MIDDLETON      MOSUNNY   75  62  63 E13       30.08F
WATERTOWN      MOSUNNY   71  61  70 E9        30.09F
MONROE         SUNNY     77  63  61 SE8G17    30.07F
JANESVILLE     MOSUNNY   79  61  53 SE12G17   30.07F HX  80
$$

WIZ051-052-058>065-066-070>072-062200-
SOUTHEAST WISCONSIN

CITY           SKY/WX    TMP DP  RH WIND       PRES   REMARKS
MILWAUKEE      PTSUNNY   54  50  86 E6        30.13F
WAUKESHA       PTSUNNY   63  54  72 E7        30.13F
MILWAUKEE/TIMM SUNNY     59  50  72 E7        30.14F
RACINE         CLOUDY    56  51  84 E6        30.15F HAZE
BURLINGTON     MOSUNNY   66  57  74 E9        30.12F
KENOSHA        MOSUNNY   58  53  84 E7        30.13F
FOND DU LAC    MOSUNNY   66  58  75 SE9       30.11F
SHEBOYGAN      PTSUNNY   59  54  83 SE7       30.15F
WEST BEND      MOSUNNY   63  54  72 E6        30.14F
JUNEAU         MOSUNNY   70  61  72 E10       30.11F
$$

LSZ147-162-062200-
LAKE SUPERIOR

STATION/POSITION TIME  TEMP    WIND        PRES    WAVE
                       AIR SEA DIR/SP/G            HT/PER
                 (UTC) (F)     (DEG/KT/KT) (MB)    (FT/S)
W MID LAKE BUOY  1950   39 36   40/  6/  8 1020.5F   0
DEVILS ISLAND    2000   41      50/  8/  9 1019.5F
PORT WING        2040   41      30/ 16/ 18 1017.3F
SAXON HARBOR     2040          320/  4/  6 1016.9F
$$

LMZ867-665-643>646-062200-
LAKE MICHIGAN

STATION/POSITION TIME  TEMP    WIND        PRES    WAVE
                       AIR SEA DIR/SP/G            HT/PER
                 (UTC) (F)     (DEG/KT/KT) (MB)    (FT/S)
CHAMBERS ISLAND  2000   59      80/  7/ 10 1022.0F
NORTHPORT PIER   2000   47     140/  5/  7 1022.4F
SISTER BAY       2002   65     150/  8/ 12   N/A
KEWAUNEE LAKESHO 2000   46      40/  7/  8 1021.2
SHEBOYGAN LAKESH 2000   47     180/  5/  6 1022.1F
PORT WASHINGTON  2040   49      70/  3/  4 1021.3F
ATWATER BUOY     2000   44      20/  6/  6 1022.4F
MILWAUKEE LAKESH 2000   46      50/  8/  8   N/A
KENOSHA   LAKESH 2000   46      40/  3/  5 1021.0F
$$

TC  - TEMPERATURE IN CELSIUS
VSB - VISIBILITY IN STATUTE MILES
WCI - WIND CHILL INDEX
HX  - HEAT INDEX



USA.gov is the U.S. government's official web portal to all federal, state and local government web resources and services.